Location: Devore Heights
(34.2372°N, 117.4156°W)
Time: 03:04:43
(UTC+00:00)

A-11 Canister half - Pass Details

Date: 13 September 2024
Orbit: 1515 x 1684 km, 47.2° (Epoch: 06 October)

Event Time Altitude Azimuth Distance (km) Brightness Sun altitude
Exits shadow 10:02:12 12° 140° (SE) 3,587 10.9 -40.4°
Drops below altitude 10° 10:02:47 10° 140° (SE) 3,769 11.0 -40.3°
Sets 10:05:55 0° 138° (SE) 4,775 11.6 -39.8°
